Terminal Aerodrome Forecast
Issued by NWS

Home | Current Version | Previous Version | Text Only | Print | Product List | Glossary On
Versions: 1 2 3 4 5 6 7 8 9 10 11 12 13 14
000
FTUS44 KBMX 190500
TAFTOI
TAF
KTOI 190529Z 1906/2006 33002KT P6SM BKN035 BKN250
     FM190900 01004KT P6SM BKN030
     FM191500 04005KT P6SM VCSH BKN035 OVC050
     FM192000 02007KT 4SM RA BKN035 OVC050=

USA.gov is the U.S. government's official web portal to all federal, state and local government web resources and services.